Regional Weather Roundup
Issued by NWS

Home | Current Version | Previous Version | Graphics & Text | Print | Product List | Glossary On
Versions: 1 2 3 4 5 6 7 8 9 10 11 12 13 14 15 16 17 18 19 20 21 22 23 24 25 26 27 28 29 30 31 32 33 34 35 36 37 38 39 40 41 42 43 44 45 46 47 48 49 50
000
ASUS43 KMPX 191401
RWRMN
WEATHER ROUNDUP FOR MINNESOTA
NATIONAL WEATHER SERVICE TWIN CITIES/CHANHASSEN MN
800 AM CST MON FEB 19 2018


NOTE: "FAIR" INDICATES FEW OR NO CLOUDS BELOW 12,000 FEET WITH NO
SIGNIFICANT WEATHER AND/OR OBSTRUCTIONS TO VISIBILITY. N/A MEANS
CURRENT SKY AND/OR WEATHER CONDITIONS ARE NOT AVAILABLE.

MNZ060>063-068>070-191500-
   Twin Cities Metro

CITY           SKY/WX    TMP DP  RH WIND       PRES   REMARKS
TWIN CITIES    CLOUDY    20  15  81 N20G28    29.91R WCI   4
ST PAUL        CLOUDY    21  16  81 N15G23    29.93R WCI   8
CRYSTAL        CLOUDY    18  11  74 N14G24    29.92R WCI   4
BLAINE         CLOUDY    19  14  79 N14G26    29.93R WCI   6
LAKEVILLE      CLOUDY    19  18  93 N16G23    29.88R FOG     WCI   5
EDEN PRAIRIE   CLOUDY    20  13  74 N18G26    29.88R WCI   5
SOUTH ST PAUL  CLOUDY    22  17  79 N12       29.91R WCI  10
LAKE ELMO      CLOUDY    25  19  80 N12       29.92R WCI  14
$$
MNZ001>005-007-008-013>017-022>024-027-028-191500-
   Northwest Minnesota

CITY           SKY/WX    TMP DP  RH WIND       PRES   REMARKS
BEMIDJI        FAIR       5  -2  72 NE10      30.11R WCI -10
HALLOCK        FAIR      -8 -13  77 NW7       30.28R WCI -22
WARROAD        FAIR      -2  -9  71 N7        30.21F WCI -16
THIEF RVR FALL FAIR      -1  -7  75 NE12      30.20S WCI -18
CROOKSTON      FAIR       1  -6  71 N9        30.22R WCI -14
FOSSTON        FAIR       1  -4  78 N9        30.13F WCI -14
DETROIT LAKES  FAIR       9   1  72 NE7       30.09R WCI  -3
MOORHEAD       FAIR       3  -2  78 N15       30.17R WCI -15
PARK RAPIDS    CLOUDY     5  -1  76 NE10G20   30.06R WCI -10
MAHNOMEN       FAIR       5  -1  76 N12       30.11S WCI -11
$$
MNZ006-009>011-018-025>026-191500-
   North Central Minnesota

CITY           SKY/WX    TMP DP  RH WIND       PRES   REMARKS
BAUDETTE       FAIR      -3  -8  79 N7        30.18R WCI -16
FLAG ISLAND    FAIR      -8 -13  77 N6        30.22R WCI -21
INTL FALLS     FAIR       2  -2  83 N6        30.17R WCI  -9
WASKISH        FAIR       1  -2  85 N5        30.16R WCI  -8
BIG FORK       FAIR       5   0  78 N8        30.11R WCI  -8
LONGVILLE      MOCLDY     5   0  78 N5        30.09R WCI  -4
GRAND RAPIDS   CLOUDY     4  -2  76 N8        30.11R WCI  -9
CRANE LAKE     FAIR       1  -2  85 N3        30.17R
ORR            FAIR       1  -4  78 CALM      30.10R
COOK           CLOUDY     3  -2  78 NE5       30.12R WCI  -6
WALKER         CLOUDY     4  -2  76 N5        30.10R WCI  -5
$$
MNZ012-019>021-037-191500-
   Northeast Minnesota

CITY           SKY/WX    TMP DP  RH WIND       PRES   REMARKS
DULUTH         LGT SNOW  10   2  69 N13       30.01S WCI  -5
ELY            FAIR       1  -4  78 NE6       30.09R WCI -10
HIBBING        CLOUDY     3  -3  76 NE8       30.09R WCI -10
EVELETH        FAIR     N/A N/A N/A NE8       30.10R
DULUTH HARBOR  LGT SNOW  18  12  79 N22G29    30.07R WCI   0
TWO HARBORS    FAIR      14   7  73 N7        30.04R WCI   4
G MARAIS ARPRT FAIR       0  -8  71 N20       30.01R WCI -22
$$
MNZ029>031-032-039>041-046>048-054>057-064-191500-
   West Central Minnesota

CITY           SKY/WX    TMP DP  RH WIND       PRES   REMARKS
FERGUS FALLS   FLURRIES   9   1  72 N8        30.09R WCI  -4
WHEATON        LGT SNOW   9   3  78 N13G22    30.10R WCI  -7
MORRIS         LGT SNOW  12   7  79 N20       30.01S WCI  -6
ALEXANDRIA     LGT SNOW  10   5  80 NE17G24   30.01R WCI  -8
ELBOW LAKE     LGT SNOW  10   6  82 NE14      30.05R WCI  -6
WADENA         FLURRIES   7   1  78 N12       30.06R WCI  -9
GLENWOOD       LGT SNOW  10   7  85 N18       29.98F WCI  -8
APPLETON       LGT SNOW  12   9  85 N20       30.00R WCI  -6
BENSON         LGT SNOW  12   9  85 NE18G26   30.00R WCI  -5
MADISON        LGT SNOW  14  10  85 N22G28    30.00R WCI  -4
WILLMAR        CLOUDY    12   9  85 N22G28    29.94F WCI  -7
$$
MNZ033>034-036-042>043-049>051-058-059-191500-
   Central Minnesota

CITY           SKY/WX    TMP DP  RH WIND       PRES   REMARKS
ST CLOUD       LGT SNOW  12   8  84 N14       29.98S FOG     WCI  -3
SAUK CENTRE    LGT SNOW  11   7  83 N16G22    29.99R WCI  -6
PAYNESVILLE    LGT SNOW  12  10  89 N20G25    29.95F WCI  -6
AITKIN         LGT SNOW   7   0  72 N10G18    30.03R WCI  -8
PINE RIVER     CLOUDY     5   0  78 N13       30.10R WCI -12
BRAINERD       LGT SNOW  10   2  69 N12       30.05R WCI  -5
STAPLES        LGT SNOW   7   1  78 N8        30.05R WCI  -6
LONG PRAIRIE   LGT SNOW  10   5  79 N15       30.01R WCI  -6
LITTLE FALLS   LGT SNOW  10   3  72 N7        30.04R VSB 1   WCI   0
LITCHFIELD     CLOUDY    16  10  79 N16G25    29.92S WCI   0
BUFFALO        CLOUDY    16  11  80 N14G23    29.94S WCI   2
MAPLE LAKE     CLOUDY    16  12  84 N13G21    29.95S WCI   2
HUTCHINSON     CLOUDY    17  12  78 N18G26    29.91R WCI   1
$$
MNZ037-044-045-052-053-191500-
   East Central Minnesota

CITY           SKY/WX    TMP DP  RH WIND       PRES   REMARKS
PRINCETON      LGT SNOW  16  10  79 N14G21    29.97F WCI   1
MORA           LGT SNOW  12   9  85 N6        30.02R VSB 3/4 WCI   3
CAMBRIDGE      CLOUDY    18   9  68 N9        29.97S WCI   6
RUSH CITY      LGT SNOW  16  11  83 N13       29.98R WCI   2
MOOSE LAKE     LGT SNOW  12   7  79 N9        30.01R WCI   0
HINCKLEY       SNOW      14  10  85 N10       30.01R VSB 1/2 WCI   1
CLOQUET        LGT SNOW   9   1  72 N10       30.02R WCI  -6
MCGREGOR       CLOUDY    10   3  72 N9        30.05R WCI  -2
$$
MNZ071>073-080-081-089-090-097-098-191500-
   Southwest Minnesota

CITY           SKY/WX    TMP DP  RH WIND       PRES   REMARKS
MONTEVIDEO     LGT SNOW  14  10  85 NE17      29.96S WCI  -3
GRANITE FALLS  LGT SNOW  16  12  84 N18G25    29.95S WCI   0
CANBY          LGT SNOW  12   9  85 N21       29.98R WCI  -6
MARSHALL       FLURRIES  14  10  84 N20       29.93R WCI  -3
REDWOOD FALLS  CLOUDY    16  10  77 N10G23    29.92R WCI   4
OLIVIA         CLOUDY    18  12  79 N22       29.92R WCI   0
PIPESTONE      FLURRIES  12   9  85 NE22G29   29.83S WCI  -7
WINDOM         LGT SNOW  16   3  57 N21G26    29.85R WCI  -2
WORTHINGTON    LGT SNOW  15  12  88 MISG      29.82R FOG
JACKSON        LGT SNOW  18  14  86 VRB20G26  29.82R WCI   1
TRACY          LGT SNOW  16  13  89 N20G28    29.90R WCI  -1
SLAYTON        LGT SNOW  14  11  90 N20G30    29.86R WCI  -4
$$
MNZ065>067-074>077-082>085-091>093-191500-
   South Central Minnesota

CITY           SKY/WX    TMP DP  RH WIND       PRES   REMARKS
MANKATO        MIX PCPN  21  18  88 N22       29.86  FOG     WCI   5
NEW ULM        LGT SNOW  18  12  79 N15G24    29.89R WCI   3
ST JAMES       CLOUDY    19  18  93 N16       29.88R FOG     WCI   5
FAIRMONT       MIX PCPN  21  18  88 MISG      29.82R FOG
GLENCOE        CLOUDY    18  14  82 N13G28    29.90R WCI   5
FARIBAULT      CLOUDY    21  19  93 N12G22    29.85R FOG     WCI   9
OWATONNA       MIX PCPN  25  23  93 N16       29.82R WCI  12
WASECA         MIX PCPN  25  23  93 N17G24    29.84R WCI  11
ALBERT LEA     MIX PCPN  27  25  93 NE15      29.79R WCI  15
$$
MNZ078>079-086>088-094>096-191500-
   Southeast Minnesota

CITY           SKY/WX    TMP DP  RH WIND       PRES   REMARKS
ROCHESTER      FRZ RAIN  28  26  92 N13       29.79R FOG     WCI  17
RED WING       MIX PCPN  28  19  69 NE5       29.87R WCI  23
STANTON        MIX PCPN  26  22  85 N17       29.85R WCI  13
DODGE CENTER   MIX PCPN  27  25  93 N14       29.79R WCI  15
WINONA         CLOUDY    32  30  93 NW6       29.80R WCI  26
AUSTIN         MIX PCPN  27  25  93 N10G16    29.78R WCI  17
PRESTON        CLOUDY    31  28  90 N9        29.77R WCI  22
$$
ABBREVIATIONS USED IN REMARKS
   TC - TEMPERATURES IN CELSIUS
  WCI - WIND CHILL INDEX
   HX - HEAT INDEX
  VSB - VISIBILITY
$$




USA.gov is the U.S. government's official web portal to all federal, state and local government web resources and services.